Location: Austin
(30.3000°N, 97.7500°W)
Time: 19:52:45
(UTC-06:00)

H-2A R/B - Pass Details

Date: 31 October 2024
Orbit: 730 x 832 km, 98.2° (Epoch: 05 November)

Event Time Altitude Azimuth Distance (km) Brightness Sun altitude
Rises 06:14:03 0° 357° (N) 3,234 5.2 -20.1°
Reaches altitude 10° 06:16:40 10° 346° (NNW) 2,289 4.3 -19.5°
Enters shadow 06:18:29 19° 330° (NNW) 1,742 3.5 -19.1°
